Location: Wells
(51.2093°N, 2.6446°W)
Time: 12:54:52
(UTC+01:00)

CUBEBUG 2 - Pass Details

Date: 14 March 2026
Orbit: 548 x 627 km, 97.9° (Epoch: 14 April)

Event Time Altitude Azimuth Distance (km) Brightness Sun altitude
Rises 03:24:11 0° 8° (N) 2,884 ? -28.0°
Reaches altitude 10° 03:26:28 10° 1° (N) 1,985 ? -27.7°
Enters shadow 03:28:28 24° 344° (NNW) 1,287 ? -27.4°
